Weather History for KFDR - April, 2013

Change the Weather History Date:

Saturday, April 6, 2013

  Actual Average (KLTS) Record (KLTS)
Temperature  
Mean Temperature 64 °F -  
Max Temperature 78 °F 68 °F 94 °F (2011)
Min Temperature 50 °F 44 °F 32 °F (2009)
Degree Days  
Heating Degree Days 2    
Growing Degree Days 14 (Base 50)    
Moisture  
Dew Point 47 °F    
Average Humidity 59    
Maximum Humidity 83    
Minimum Humidity 32    
Precipitation  
Precipitation 0.00 in - - ()
Sea Level Pressure  
Sea Level Pressure 29.79 in    
Wind  
Wind Speed 12 mph (SE)    
Max Wind Speed 21 mph    
Max Gust Speed 24 mph    
Visibility 10 miles    
Events      
Averages and records for this station are not official NWS values.
T = Trace of Precipitation, MM = Missing Value Source: NWS Daily Summary

Daily Weather History Graph

Daily Weather History Graph

Search for Another Location

Airport or City:

Trip Planner

Search our weather history database for the weather conditions in past years. The results will help you decide how hot, cold, wet, or windy it might be!

Date:

Astronomy

Apr. 06, 2013 Rise Set
Actual Time 7:15 AM CDT 8:00 PM CDT
Civil Twilight 6:50 AM CDT 8:26 PM CDT
Nautical Twilight 6:20 AM CDT 8:56 PM CDT
Astronomical Twilight 5:49 AM CDT 9:27 PM CDT
Moon 4:51 AM CDT (4/6) 4:39 PM CDT (4/6)
Length of Visible Light 13h 35m
Length of Day
12h 44m
Waning Crescent, 15% of the Moon is Illuminated
Apr 6
Waning Crescent
Apr 10
New
Apr 18
First Quarter
Apr 25
Full
May 2
Last Quarter

Hourly Weather History & Observations

Time (CDT) Temp. Dew Point Humidity Pressure Visibility Wind Dir Wind Speed Gust Speed Precip Events Conditions
12:53 AM 55.0 °F 46.0 °F 72% 29.84 in 10.0 mi SSE 17.3 mph - N/A   Clear
1:53 AM 55.0 °F 46.0 °F 72% 29.83 in 10.0 mi SSE 15.0 mph - N/A   Clear
2:53 AM 55.9 °F 46.0 °F 69% 29.84 in 10.0 mi South 9.2 mph - N/A   Clear
3:53 AM 55.0 °F 46.0 °F 72% 29.81 in 10.0 mi SSE 10.4 mph - N/A   Clear
4:53 AM 54.0 °F 46.0 °F 75% 29.79 in 10.0 mi SE 9.2 mph - N/A   Clear
5:53 AM 53.1 °F 46.0 °F 77% 29.77 in 10.0 mi SSE 12.7 mph - N/A   Clear
6:53 AM 51.1 °F 45.0 °F 80% 29.79 in 10.0 mi SSE 9.2 mph - N/A   Clear
7:53 AM 50.0 °F 45.0 °F 83% 29.81 in 10.0 mi SSE 10.4 mph - N/A   Clear
8:53 AM 57.0 °F 46.9 °F 69% 29.81 in 10.0 mi SSE 15.0 mph 20.7 mph N/A   Clear
9:53 AM 62.1 °F 46.9 °F 58% 29.81 in 10.0 mi South 20.7 mph - N/A   Clear
10:53 AM 66.0 °F 46.0 °F 48% 29.81 in 10.0 mi SSW 18.4 mph 24.2 mph N/A   Clear
11:53 AM 70.0 °F 46.0 °F 42% 29.81 in 10.0 mi South 12.7 mph 21.9 mph N/A   Clear
12:53 PM 73.0 °F 46.0 °F 38% 29.80 in 10.0 mi SSW 9.2 mph - N/A   Clear
1:53 PM 73.9 °F 45.0 °F 35% 29.79 in 10.0 mi Variable 3.5 mph - N/A   Clear
2:53 PM 73.0 °F 45.0 °F 37% 29.77 in 10.0 mi Calm Calm - N/A   Clear
3:53 PM 77.0 °F 45.0 °F 32% 29.75 in 10.0 mi Calm Calm - N/A   Clear
4:53 PM 75.9 °F 46.0 °F 35% 29.74 in 10.0 mi South 5.8 mph - N/A   Clear
5:53 PM 77.0 °F 46.0 °F 33% 29.74 in 10.0 mi SE 4.6 mph - N/A   Clear
6:53 PM 73.0 °F 51.1 °F 46% 29.75 in 10.0 mi NE 5.8 mph - N/A   Clear
7:53 PM 68.0 °F 53.1 °F 59% 29.76 in 10.0 mi NE 8.1 mph - N/A   Clear
8:53 PM 66.0 °F 53.1 °F 63% 29.75 in 10.0 mi ENE 10.4 mph - N/A   Clear
9:53 PM 63.0 °F 53.1 °F 70% 29.78 in 10.0 mi ENE 10.4 mph - N/A   Clear
10:53 PM 61.0 °F 52.0 °F 72% 29.78 in 10.0 mi NE 10.4 mph - N/A   Clear
11:53 PM 59.0 °F 51.1 °F 75% 29.78 in 10.0 mi NNE 10.4 mph - N/A   Clear